Location: Unspecified
(52.1384°N, 8.6525°W)
Time: 09:27:17
(UTC+00:00)

N. Korean satellite - Visible Passes

Search period start: 27 October 2020 00:00
Search period end: 06 November 2020 00:00
Orbit: 452 x 505 km, 97.2° (Epoch: 26 October)

Date Brightness Start Highest point End Pass type
(mag) Time Alt. Az. Time Alt. Az. Time Alt. Az.
27 Oct 9.3 05:25:43 10° NE 05:28:23 21° E 05:31:02 10° SE visible
28 Oct 10.1 05:00:54 10° ENE 05:02:00 11° E 05:03:06 10° ESE visible
28 Oct 6.4 06:32:23 10° N 06:35:47 66° WNW 06:39:11 10° SSW visible
29 Oct 7.1 06:06:15 10° NNE 06:09:39 59° E 06:13:01 10° S visible
29 Oct 10.0 18:21:36 10° SW 18:23:38 14° W 18:25:38 10° NW visible
30 Oct 8.6 05:40:21 10° NNE 05:43:25 29° E 05:46:26 10° SSE visible
30 Oct 9.2 17:54:16 10° SSW 17:57:17 26° W 18:00:17 10° NW visible
31 Oct 9.7 05:14:52 10° NE 05:17:04 16° E 05:19:17 10° SE visible
31 Oct 6.7 06:47:22 10° N 06:50:40 44° WNW 06:53:55 10° SW visible
01 Nov 6.4 06:21:07 10° NNE 06:24:33 90° WNW 06:27:59 10° SSW visible
02 Nov 7.7 05:55:03 10° NNE 05:58:21 43° E 06:01:38 10° S visible
02 Nov 9.7 18:09:45 10° SW 18:12:16 18° W 18:14:46 10° NW visible
03 Nov 9.1 05:29:15 10° NE 05:32:03 23° E 05:34:50 10° SSE visible
03 Nov 8.5 17:42:43 10° SSW 17:45:56 34° W 17:49:08 10° NNW visible
04 Nov 10.0 05:04:08 10° ENE 05:05:39 12° E 05:07:10 10° ESE visible
04 Nov 6.4 06:35:59 10° N 06:39:23 59° WNW 06:42:46 10° SSW visible
05 Nov 6.8 06:09:47 10° NNE 06:13:13 67° ESE 06:16:39 10° S visible
05 Nov 10.0 18:25:34 10° WSW 18:27:14 13° W 18:28:53 10° WNW visible
